Chengdu Shuangliu International Airport
ZUUU : now visible

Airfield :











YOU CAN JOIN US ON...

 
LOGIN :

Register | Disclaimer

   EN    FR    IT 

 









Legend :    VFR   Marginal VFR   IFR   Intensive IFR   Very Intensive IFR
Visi :
Ceiling :
>= 8 km
>= 3000ft
5 to 8 km
1000 to 3000 ft
1500m to 5 km
500 to 1000 ft
800 to 1500m
200 to 500 ft
< 800m
< 200 ft
Symbols :   Thunderstorms  Fog  Heavy snow  Heavy precipitations  Wind > 20 kt






- Airport Elevation : 1625 ft
- IATA code : CTU


ZUUU - Chengdu Shuangliu International

CURRENT METAR :
  • 240900Z 10003MPS 050V130 4000 HZ SCT050 20/12 Q1015 NOSIG

EXPIRED METARs :
  • 240800Z 11003MPS 030V180 3500 HZ SCT050 21/13 Q1015 NOSIG
  • 240700Z 12002MPS 030V180 3500 HZ SCT050 21/12 Q1015 NOSIG

TAF TAF ZUUU
Valid from the 24 at 06:00 until the 25 at 06:00 UTC


240310Z 2406/2506 33003MPS 3500 BR SCT040 TX20/2407Z TN15/2423Z
BECMG 2422/2423 2500
BECMG 2501/2502 3500
ZPKM FIR / Asia



MET'MAP, your aeronautical weather chart ! - Copyright ORBIFLY December 2007 - Disclaimer

ORBIFLY MET'MAP TEAM :

Programming & Development : Alexandra Zaïnal
Concept & original design : Baudouin d'Aumeries
Assistance for programming : Marc-Olivier Méhu
Technical & hardware support : Manuel Goepfert

Contact : metmap@orbifly.com




SOURCES & CREDITS :

   NOAA       Earth
Advisory